Wind_Speed
17 18 17 17 18 19 20 22 23 23 23 23 23 23 23 25 26 28 29 30 30 31 34 36 38 39 41 42 43 43 43 44 45 45 46 45 45 44 44 43 43 42 42 42
17 18 18 18 19 20 19 21 22 22 22 23 23 23 23 24 25 26 28 29 30 30 31 34 36 37 39 40 41 42 42 43 44 45 46 46 45 45 44 44 43 43 42 42
18 19 19 18 18 20 20 20 21 21 21 21 22 23 23 23 24 25 27 28 29 29 30 31 33 36 37 38 39 40 41 42 42 43 44 45 45 45 44 43 43 42 42 42
18 19 20 20 19 20 20 21 22 22 22 21 22 23 24 24 24 25 27 28 28 29 30 31 32 33 34 35 37 38 39 40 40 41 42 42 42 42 42 42 42 42 42 41
19 19 19 20 20 20 20 21 22 22 22 22 22 23 24 24 24 25 26 28 28 29 30 31 32 33 33 34 35 36 38 39 39 39 40 40 41 41 41 41 42 41 41 41
19 19 18 19 20 21 21 21 22 24 24 23 23 23 23 24 24 24 26 27 28 29 30 31 32 33 34 34 35 35 36 37 38 39 39 40 40 40 41 41 41 41 41 40
18 19 19 19 19 20 21 21 21 23 23 23 23 23 23 24 24 24 25 26 27 28 30 31 32 33 34 34 35 36 36 36 36 37 38 38 39 40 40 41 41 41 41 41
19 20 20 21 21 21 21 21 22 22 23 22 22 22 22 22 23 24 25 25 26 27 29 30 31 32 32 33 33 34 35 35 35 35 36 37 38 38 39 39 39 39 40 39
20 20 20 21 22 22 23 23 23 23 23 23 23 23 23 23 23 24 24 25 25 26 28 29 30 30 31 32 32 32 33 34 34 34 34 35 36 36 37 37 37 37 37 37
21 20 21 21 21 22 23 24 24 23 24 24 24 24 24 24 24 25 26 25 25 26 27 28 29 29 30 30 30 31 31 32 33 33 34 34 35 36 37 37 36 36 36 36
20 21 22 22 22 23 23 24 24 24 24 24 24 25 25 24 24 25 26 25 25 25 26 26 27 28 28 28 29 30 30 30 31 32 33 33 33 34 35 36 36 36 36 36
20 21 22 22 23 23 24 24 24 25 25 25 24 25 25 25 25 25 25 25 25 25 25 26 26 27 27 27 27 28 28 28 29 29 30 31 31 32 32 33 33 33 33 34
22 22 22 21 22 22 23 23 23 24 24 24 24 24 24 24 25 25 25 25 25 24 24 25 25 26 26 27 27 26 27 26 26 27 29 30 31 31 31 31 32 31 31 31
22 22 22 22 22 22 22 22 22 22 23 23 23 24 24 24 24 24 24 24 24 23 23 23 24 24 25 25 26 26 26 26 25 26 27 28 29 30 30 30 30 31 30 30
22 22 22 22 22 22 22 22 22 22 22 23 23 23 23 23 24 24 23 22 22 22 22 22 22 22 23 24 24 25 25 25 26 26 26 27 27 27 28 28 28 28 29 29
22 22 21 22 21 21 21 22 22 22 23 23 23 22 22 22 22 22 22 21 21 22 21 21 22 22 22 23 24 24 24 24 25 25 24 25 25 26 27 27 27 27 28 28
22 21 21 22 21 21 21 21 22 22 22 22 22 22 22 22 21 21 21 21 21 22 21 21 22 22 22 22 23 22 22 23 24 24 24 24 25 25 25 25 26 26 27 27
21 21 22 22 21 21 21 21 21 21 21 21 21 21 21 21 21 20 20 20 20 21 21 21 21 22 22 21 21 22 21 21 21 22 22 23 23 24 24 24 24 25 25 24
22 22 21 21 21 21 21 22 21 21 21 21 20 20 19 19 19 20 20 19 20 20 21 21 20 21 21 21 21 21 21 21 20 20 20 20 21 22 23 23 23 23 23 23
21 22 22 21 21 21 21 21 21 21 21 21 20 20 20 20 20 20 20 20 19 19 19 19 19 19 19 19 19 19 20 19 19 19 19 19 19 20 21 21 22 22 22 22
22 22 22 21 21 20 20 20 20 20 20 20 20 20 19 19 19 19 19 19 19 18 18 18 17 17 18 18 18 18 18 18 18 18 18 18 18 17 17 18 19 20 20 20
22 22 22 21 21 21 20 20 20 19 19 19 19 19 19 19 19 19 19 18 18 17 17 16 16 15 15 15 15 15 15 15 16 16 17 16 16 16 17 17 18 19 19 19
22 21 21 21 21 20 20 20 20 19 19 18 18 18 18 17 17 17 17 17 17 16 15 14 14 14 14 14 13 13 13 14 14 15 15 15 15 15 16 16 16 16 17 18
21 20 20 20 20 19 19 19 19 18 18 18 18 17 16 16 15 15 15 15 15 15 14 13 13 13 12 12 12 12 13 13 13 14 14 15 15 15 15 15 14 14 14 15
20 19 19 19 19 19 18 18 18 17 17 17 16 16 15 15 14 14 13 13 13 13 13 13 12 12 11 11 11 11 11 12 12 12 12 12 12 13 13 14 14 14 14 14
20 19 19 19 19 18 18 17 17 16 16 16 15 15 14 13 13 13 12 12 12 12 12 12 12 12 12 11 11 10 10 10 10 10 10 10 10 10 11 12 12 13 13 13
20 19 19 19 18 18 17 17 16 15 15 15 14 13 12 12 11 11 11 11 11 12 12 12 12 12 12 12 11 11 10 10 10 10 9 9 9 10 10 11 11 11 11 11
Wind_Direction
269 266 265 263 262 261 260 261 262 259 260 260 260 260 259 257 255 252 251 251 249 247 245 244 244 244 244 244 244 245 246 247 246 246 247 248 250 252 253 254 255 257 257 258
272 269 266 264 262 260 260 262 261 260 260 260 259 260 259 258 256 254 252 252 252 250 247 245 245 245 244 245 245 245 247 247 246 246 247 248 250 253 254 255 256 257 258 259
275 273 269 266 265 263 262 261 262 262 262 261 258 259 260 259 257 254 252 252 252 251 249 247 246 245 246 246 246 247 247 247 247 247 249 250 251 252 253 255 256 258 259 260
278 275 273 269 266 266 265 262 261 263 264 263 262 262 262 261 258 254 253 253 253 252 250 250 250 249 248 248 249 249 249 249 249 249 249 251 252 252 252 254 256 258 259 261
281 280 276 271 270 269 268 265 262 263 264 264 265 265 263 264 261 258 255 255 256 256 253 252 252 252 251 251 251 251 251 250 250 250 250 251 251 251 252 253 255 257 258 260
283 283 281 276 273 270 269 268 265 266 266 265 265 265 264 266 265 263 261 259 259 258 256 254 254 253 252 252 252 252 252 252 252 251 251 251 251 251 252 253 254 255 257 259
283 282 281 279 277 273 271 271 271 272 271 269 266 266 267 267 266 264 263 262 261 259 257 255 255 255 254 253 253 252 252 252 252 252 252 252 252 252 252 254 254 255 255 258
285 283 281 280 278 275 272 271 273 274 274 272 268 268 269 268 267 266 266 264 263 260 258 257 255 255 255 254 253 252 252 252 252 252 252 252 252 252 252 253 254 254 255 257
286 284 282 280 278 276 273 271 272 274 274 271 270 270 269 269 268 267 268 267 265 262 260 259 258 257 256 255 254 253 253 253 253 252 253 252 251 252 252 252 252 253 254 256
285 283 281 280 279 277 274 273 272 274 272 270 270 270 269 269 268 268 269 269 268 265 264 262 261 260 260 258 256 254 253 252 252 251 251 251 251 252 252 251 251 252 253 254
287 284 281 280 279 279 278 275 272 273 272 269 269 269 268 269 269 268 269 270 269 268 266 265 264 263 261 259 257 255 253 252 251 251 250 250 251 252 252 251 251 252 253 255
288 287 285 281 279 278 279 277 275 274 272 271 270 268 269 269 268 268 268 269 270 269 267 265 264 264 263 261 258 254 251 252 252 250 248 248 250 251 251 251 250 251 253 255
286 286 285 284 281 279 279 278 276 276 273 272 272 271 271 269 268 267 268 269 269 269 268 266 266 265 264 262 258 254 250 250 250 250 247 248 249 250 249 249 249 250 252 254
286 286 285 284 283 281 280 279 277 277 276 276 275 274 272 270 269 268 268 268 268 268 269 268 266 264 262 260 257 253 249 249 249 249 248 249 250 249 248 248 249 250 251 253
288 287 285 285 284 282 280 279 279 278 279 278 277 276 273 271 270 268 267 267 267 268 268 268 266 264 261 259 256 253 250 249 248 248 249 250 250 249 247 247 249 250 251 253
289 287 286 285 285 284 282 283 282 281 281 280 278 278 276 274 271 267 266 265 266 267 267 267 265 265 264 260 256 254 250 248 247 248 249 248 248 248 249 249 249 250 251 251
289 287 287 287 285 284 284 284 285 283 282 280 279 278 276 275 271 267 266 265 266 267 267 267 265 264 263 260 255 253 252 249 249 248 249 249 249 249 250 250 250 251 252 252
291 288 288 288 286 284 285 284 284 283 283 282 281 279 277 275 272 269 266 266 267 267 267 267 265 262 260 258 256 253 252 250 251 251 251 251 251 251 252 253 253 252 252 253
292 290 289 288 286 286 286 286 286 284 283 283 282 280 277 275 272 269 267 267 267 267 267 266 263 260 257 256 256 253 251 250 251 251 251 252 253 254 254 253 252 250 251 254
293 292 290 289 288 287 287 288 288 285 284 283 281 280 278 276 273 270 267 267 268 268 267 265 262 259 258 257 257 254 250 248 248 250 250 252 255 255 253 250 249 250 251 253
293 293 291 290 289 288 288 288 288 287 285 283 281 280 278 276 274 271 268 266 267 266 264 263 261 260 259 258 257 253 248 245 245 245 247 250 251 251 250 249 248 248 250 252
293 293 293 291 289 289 289 288 288 286 286 285 282 280 279 277 274 272 268 266 264 263 260 259 258 257 257 256 254 251 247 244 242 241 243 245 246 247 248 249 249 248 248 250
293 293 293 291 289 289 288 288 287 286 285 285 285 284 281 278 275 273 269 264 260 257 255 253 251 251 253 253 252 248 243 241 240 241 241 240 242 246 248 249 249 249 248 249
292 292 292 291 289 289 288 288 288 287 284 283 285 284 281 276 273 271 267 262 257 255 252 250 249 250 250 247 245 243 241 241 241 240 239 242 244 246 246 246 247 248 248 249
290 291 292 292 291 291 290 288 288 287 284 284 284 283 280 275 270 268 265 259 256 253 249 245 242 241 239 237 238 239 238 237 237 237 239 242 243 243 243 242 242 244 246 248
288 289 291 292 293 293 291 289 287 286 285 284 282 280 276 272 267 264 257 251 248 245 241 238 235 234 232 232 232 232 233 235 234 237 239 241 243 244 243 241 241 243 246 248
290 290 291 292 292 291 289 287 285 285 285 283 280 277 273 269 266 259 250 244 240 237 235 233 231 229 227 225 224 227 231 233 235 238 241 244 245 244 241 240 242 245 247 249
Height
5574 5574 5574 5575 5575 5575 5576 5577 5577 5579 5579 5580 5580 5581 5582 5583 5584 5585 5587 5588 5590 5592 5594 5597 5600 5603 5606 5609 5612 5615 5618 5621 5624 5628 5631 5635 5638 5641 5643 5645 5648 5650 5653 5655
5571 5570 5570 5571 5571 5571 5571 5572 5572 5573 5574 5574 5574 5575 5576 5576 5577 5578 5580 5581 5583 5585 5586 5589 5591 5594 5597 5600 5602 5605 5608 5611 5614 5618 5621 5625 5628 5631 5633 5635 5638 5641 5643 5645
5567 5566 5566 5567 5566 5566 5566 5566 5567 5568 5569 5568 5569 5569 5569 5570 5571 5571 5573 5574 5576 5577 5579 5581 5583 5585 5588 5590 5593 5596 5599 5602 5605 5608 5611 5615 5618 5620 5623 5626 5628 5631 5633 5635
5562 5562 5562 5564 5562 5561 5561 5562 5561 5562 5562 5562 5563 5563 5563 5564 5564 5565 5566 5567 5569 5570 5571 5573 5575 5577 5579 5581 5584 5586 5589 5592 5595 5598 5601 5604 5607 5610 5613 5616 5618 5621 5623 5625
5557 5557 5557 5558 5557 5556 5556 5557 5556 5556 5556 5557 5557 5558 5558 5557 5558 5558 5559 5560 5561 5562 5564 5565 5567 5569 5571 5573 5575 5577 5580 5582 5585 5588 5591 5594 5597 5600 5603 5606 5608 5611 5613 5616
5553 5552 5552 5554 5552 5551 5552 5552 5552 5551 5551 5551 5551 5552 5553 5551 5551 5551 5552 5553 5554 5555 5556 5557 5559 5560 5562 5564 5566 5568 5570 5573 5576 5578 5581 5584 5587 5590 5593 5595 5598 5601 5604 5606
5549 5548 5548 5548 5547 5546 5548 5548 5546 5545 5544 5544 5544 5545 5545 5545 5545 5545 5545 5546 5546 5547 5548 5549 5551 5552 5554 5555 5557 5559 5561 5564 5566 5568 5571 5574 5577 5579 5582 5585 5588 5591 5594 5596
5545 5544 5546 5543 5542 5542 5542 5541 5540 5539 5539 5538 5538 5538 5538 5539 5538 5538 5539 5539 5539 5539 5540 5541 5542 5544 5545 5547 5548 5550 5552 5554 5556 5559 5561 5563 5566 5569 5572 5575 5578 5580 5583 5586
5541 5542 5539 5537 5536 5536 5536 5535 5534 5534 5533 5533 5533 5532 5532 5532 5532 5532 5532 5532 5532 5532 5533 5533 5534 5535 5537 5538 5539 5541 5543 5545 5547 5549 5551 5553 5556 5559 5562 5565 5568 5571 5574 5577
5536 5535 5533 5532 5531 5530 5529 5529 5528 5528 5527 5527 5526 5526 5526 5526 5526 5526 5525 5525 5525 5525 5525 5526 5526 5527 5528 5529 5530 5532 5533 5535 5537 5539 5541 5544 5547 5550 5553 5556 5559 5562 5565 5567
5530 5529 5528 5527 5525 5524 5523 5522 5522 5521 5520 5520 5520 5520 5519 5519 5519 5519 5518 5518 5518 5518 5518 5518 5519 5519 5520 5520 5521 5523 5524 5526 5527 5530 5532 5535 5537 5540 5543 5546 5549 5553 5556 5558
5525 5523 5522 5521 5519 5518 5517 5516 5515 5515 5514 5513 5513 5513 5512 5512 5512 5512 5511 5511 5511 5511 5511 5511 5511 5512 5512 5512 5513 5514 5516 5517 5519 5521 5523 5526 5529 5532 5534 5538 5541 5544 5547 5549
5519 5517 5516 5515 5513 5512 5511 5510 5509 5508 5508 5507 5506 5505 5505 5505 5504 5504 5504 5504 5504 5504 5504 5504 5504 5504 5504 5505 5505 5506 5508 5510 5511 5513 5516 5519 5521 5524 5527 5529 5532 5536 5538 5541
5512 5511 5510 5509 5508 5506 5505 5504 5503 5502 5501 5500 5499 5498 5498 5497 5497 5497 5497 5497 5497 5497 5497 5497 5497 5497 5498 5498 5498 5499 5501 5503 5505 5507 5509 5512 5514 5517 5519 5522 5525 5528 5530 5533
5506 5505 5504 5503 5502 5500 5499 5498 5497 5496 5495 5494 5493 5492 5491 5490 5490 5490 5490 5490 5490 5491 5491 5491 5491 5491 5491 5491 5492 5493 5495 5497 5498 5500 5502 5505 5507 5509 5512 5515 5518 5520 5523 5525
5500 5499 5497 5496 5495 5494 5493 5491 5490 5489 5488 5487 5486 5485 5484 5483 5483 5483 5483 5483 5484 5484 5484 5484 5484 5484 5484 5485 5486 5487 5488 5490 5492 5494 5496 5498 5500 5503 5505 5508 5511 5513 5516 5518
5494 5493 5491 5490 5489 5488 5486 5485 5484 5483 5481 5480 5479 5478 5477 5477 5477 5477 5477 5477 5477 5478 5478 5478 5478 5478 5478 5479 5480 5481 5482 5484 5486 5488 5490 5492 5494 5496 5499 5501 5504 5506 5508 5511
5487 5487 5485 5484 5483 5482 5480 5479 5477 5476 5475 5474 5473 5472 5471 5470 5470 5470 5471 5471 5471 5471 5471 5471 5471 5471 5472 5473 5474 5475 5477 5479 5480 5482 5484 5486 5488 5490 5492 5495 5497 5499 5501 5504
5482 5481 5479 5478 5476 5475 5474 5472 5471 5470 5469 5468 5467 5466 5465 5464 5464 5464 5464 5465 5465 5465 5465 5465 5465 5465 5466 5467 5468 5469 5471 5473 5475 5477 5479 5480 5482 5484 5486 5488 5490 5492 5495 5497
5476 5475 5473 5471 5470 5469 5468 5466 5465 5463 5462 5461 5460 5460 5459 5458 5458 5458 5458 5459 5459 5459 5459 5459 5459 5460 5461 5461 5463 5464 5466 5468 5470 5471 5473 5475 5477 5478 5480 5482 5484 5486 5488 5490
5470 5468 5467 5465 5464 5463 5461 5460 5459 5457 5456 5455 5454 5453 5453 5452 5452 5452 5452 5453 5453 5453 5453 5454 5454 5455 5456 5456 5458 5459 5460 5462 5464 5466 5468 5470 5471 5473 5474 5476 5478 5480 5481 5483
5463 5462 5460 5459 5458 5456 5455 5454 5453 5451 5450 5449 5448 5447 5447 5446 5446 5446 5446 5447 5447 5447 5448 5449 5449 5450 5451 5452 5453 5454 5456 5458 5459 5461 5463 5465 5467 5468 5469 5471 5472 5474 5475 5477
5457 5455 5454 5453 5451 5450 5449 5447 5446 5445 5444 5443 5442 5442 5441 5441 5440 5440 5441 5441 5441 5442 5443 5444 5445 5446 5447 5448 5449 5451 5452 5454 5456 5457 5459 5461 5462 5463 5465 5466 5467 5468 5470 5471
5450 5449 5448 5446 5445 5444 5443 5441 5440 5439 5439 5438 5437 5436 5436 5435 5435 5435 5435 5436 5437 5438 5439 5440 5441 5442 5443 5444 5446 5447 5449 5450 5452 5453 5455 5456 5458 5459 5460 5461 5462 5463 5465 5466
5445 5443 5442 5441 5439 5438 5437 5436 5435 5434 5433 5432 5432 5431 5430 5430 5431 5431 5431 5431 5432 5433 5435 5436 5437 5439 5440 5441 5443 5444 5446 5447 5448 5450 5451 5452 5453 5454 5455 5456 5458 5459 5460 5461
5439 5438 5437 5435 5434 5433 5432 5431 5430 5429 5428 5427 5427 5426 5426 5426 5426 5426 5427 5428 5429 5430 5431 5433 5434 5435 5437 5438 5440 5441 5443 5444 5446 5447 5448 5449 5450 5451 5451 5453 5454 5455 5456 5457
5433 5432 5431 5430 5429 5428 5427 5426 5425 5424 5423 5423 5422 5422 5422 5422 5422 5423 5423 5424 5425 5427 5428 5429 5431 5432 5434 5436 5437 5439 5440 5442 5443 5444 5445 5446 5447 5448 5448 5449 5450 5451 5452 5453